Weather in Myhove

Ukraine / Chernovtci District     48°08′59″N   25°22′49″E
temp.,
°C
wind,
m/s
gust,
m/s
humid.,
%
clouds,
%
prec.,
mm/h
press.,
hPa
HPBL,
m
22 may, sun
sun2200:00+15nw51163100 0.0 1012804
03:00+12nw411705 0.0 1012653
06:00+9w22775 0.0 101135
09:00+14nw813635 0.0 10111392
12:00+16nnw9125487 0.0 10091935
15:00+16nnw9135699 0.0 10101666
18:00+15nw8126693 0.3 10101433
21:00+12nw5117598 0.6 1011736
23 may, mon
mon2300:00+9wnw3988100 0.2 1012325
03:00+9nw4119168 0.8 1012463
06:00+8nw4129193 0.3 1012581
09:00+10nw698390 0.8 1012978
12:00+14nnw686099 0.3 10121581
15:00+13nw676394 0.4 10131092
18:00+14nnw556384 0.0 10121283
21:00+10wnw228265 0.0 101331
24 may, tue
tue2400:00+10sw227573 0.0 101431
03:00+8ssw11835 0.0 101411
06:00+6sw22883 0.0 101415
09:00+13ese23665 0.0 1014558
12:00+17ese5554100 0.0 10131350
15:00+19ese6650100 0.0 10121474
18:00+19ese575599 0.0 10121303
21:00+13se3575100 0.0 101366
25 may, wed
wed2500:00+10sse3487100 0.0 101467
03:00+10sse3490100 0.0 101474
06:00+9sse22905 0.0 101521
09:00+16ese226776 0.0 1014300
12:00+19e225891 0.0 1014644
15:00+22sse3358100 0.1 10131182
18:00+21se2266100 0.2 1013460
21:00+17s22875 0.3 101321
26 may, thu
thu2600:00+15wsw2291100 0.5 101413
03:00+14wnw41196100 1.7 1016458
06:00+14nw5119592 0.0 1017586
09:00+13wnw41090100 0.1 1019605
12:00+19nw5661100 0.0 10191294
15:00+22nnw4747100 0.1 10181818
18:00+22n344759 0.0 10181464
21:00+17nw226798 0.0 101918